Orbital elements: 2009 HV58 Earth MOID = 0.0626 AU Epoch 2009 June 18.0 TT = JDT 2455000.5 MPC M 49.73037 (2000.0) P Q n 0.33833157 Peri. 49.41054 -0.30430808 -0.68435872 a 2.0397379 Node 71.23408 +0.51393109 -0.70362714 e 0.6095857 Incl. 44.41173 +0.80204204 +0.19121189 P 2.91 H 19.5 G 0.15 U 9 [u...
Orbital elements: 2009 HT58 Earth MOID = 0.0567 AU Epoch 2009 June 18.0 TT = JDT 2455000.5 MPC M 27.69398 (2000.0) P Q n 0.63166110 Peri. 190.03298 -0.72266279 +0.66939313 a 1.3452819 Node 34.08267 -0.61095696 -0.50206709 e 0.2119652 Incl. 17.90157 -0.32324925 -0.54757783 P 1.56 H 25.2 G 0.15 U 7 [...
Orbital elements: 2009 HU58 Earth MOID = 0.2718 AU Epoch 2009 June 18.0 TT = JDT 2455000.5 MPC M 358.65453 (2000.0) P Q n 0.31035339 Peri. 285.35106 +0.81130169 +0.25741056 a 2.1605537 Node 62.41884 +0.11236459 +0.81245595 e 0.9138733 Incl. 36.31400 -0.57372796 +0.52312057 P 3.18 H 18.9 G 0.15 U 9...
The 260 - 580 metre wide asteroid 2009 FU23 will make a flyby (68.0 Lunar Distances, 0.1748 AU), travelling at 7.70 km/s, to the Earth-Moon system on the 27th April 2009. See more The Lunar Distance (LD), the distance betw...
The 1300 - 2800 metre wide asteroid 2001 VG5 made a close pass (58.5 Lunar Distances, 0.1503 AU), travelling at 12.04 km/s, to the Earth-Moon system on the 26th April 2009. See more The Lunar Distance (LD), the distance betwee...
The 180 - 410 metre wide asteroid 2009 FP28 made a close pass (39.1 Lunar Distances, 0.1006 AU), travelling at 11.39 km/s, to the Earth-Moon system on the 26th April 2009. See more The Lunar Distance (LD), the distance bet...
Orbital elements: 2009 HS44 Earth MOID = 0.0056 AU Epoch 2009 June 18.0 TT = JDT 2455000.5 MPC M 2.65874 (2000.0) P Q n 0.23883015 Peri. 73.01821 +0.21416978 +0.97657280 a 2.5728232 Node 209.37361 -0.91162411 +0.19214934 e 0.7032389 Incl. 2.44227 -0.35081731 +0.09687209 P 4.13 H 26.6 G 0.15 U 6 [ur...
Orbital elements: 2009 HH21 Earth MOID = 0.0279 AU Epoch 2009 June 18.0 TT = JDT 2455000.5 MPC M 26.29263 (2000.0) P Q n 0.59142555 Peri. 12.01956 -0.70109528 +0.71189169 a 1.4056245 Node 213.49093 -0.66021814 -0.66975111 e 0.2650797 Incl. 4.25427 -0.26940195 -0.21129051 P 1.67 H 26.8 G 0.15 U 8 [u...
Friends of a Dorset charity have spent the past eight months gearing up for the biggest fundraising event in their groups history. The Dorset Extravaganza has been solely organised by volunteers and aims to attract 1,000 people to the historic setting of Sherborne School on Friday, May 29. [url=ht...
A team of astronomers from the Instituto Astrofisica Canarias (IAC) have found an interesting shadow cast by a forming star system. Team member Dr Basmah Riaz, an ER fellow for the Marie Curie CONSTELLATION network, will present the results of their work on Thursday 23rd April in a poster at the Euro...
Twenty-four unusual stars, 18 of them newly discovered, have been observed in new Hubble telescope images. The stars are white dwarfs, a common type of dead star, but they are odd because they are made of helium rather than the usual carbon and oxygen. This is the first extensive sequence of helium-c...
While its name sounds like a disease you'd catch after a weekend of incautious living, iota Cancri (pronounced "eye-OH-tah KAN-kree") is actually a pretty double star in the northern part of the constellation Cancer, the Crab. This pair is easy to separate and striking in a small telesc...
Title: Re-identification of G35.6-0.4 as a supernova remnant Authors: D. A. Green G35.6-0.4 is an extended radio source in the Galactic plane which has previously been identified as either a supernova remnant or an HII region. Observations from the VLA Galactic Plane Survey at 1.4 GHz with a resol...
Title: Radial velocity study of the CP star Epsilon Ursae Majoris Authors: N.A. Sokolov In this Letter, the radial velocity variability of the chemically peculiar star Epsilon Ursae Majoris (epsilon UMa) from the sharp cores of the hydrogen lines is investigated. This study is based on the ELODIE...